Location: *
(52.7500°S, 179.2833°W)
Time: 20:47:42
(UTC+00:00)

Daily predictions for brighter satellites

Satellite Brightness Start Highest point End
(mag) Time Altitude Azimuth Time Altitude Azimuth Time Altitude Azimuth
USA 59 Rocket 4.0 12:36:53 10° SW 12:37:41 12° SW 12:37:41 12° SW
ATLAS 5 CENTAUR R/B 3.3 15:13:49 50° ENE 15:13:49 50° ENE 15:20:19 10° SE
ATLAS 2AS CENTAUR R/B 3.8 15:21:18 34° SSW 15:22:14 35° S 15:28:58 10° ESE
Cosmos 1697 Rocket 4.1 15:29:32 30° NE 15:30:46 33° ENE 15:35:49 10° SE
Cosmos 1656 4.4 15:35:01 48° SE 15:35:01 48° SE 15:38:56 10° SSE
ACS3 Solar Sail 3.6 15:32:03 10° ENE 15:37:20 29° ESE 15:42:43 10° S
NOSS 3-3 (A) 4.4 15:40:15 75° WSW 15:40:36 76° SW 15:47:58 10° SE
Cosmos 2263 Rocket 3.1 15:39:34 39° S 15:40:56 46° SE 15:46:18 10° ENE
SL-16 R/B 3.7 15:37:22 10° SSE 15:43:18 40° E 15:49:09 10° NNE
Cosmos 2369 Rocket 4.0 15:46:58 20° S 15:46:58 20° S 15:49:46 10° SSE
Cosmos 2173 Rocket 3.9 15:48:24 84° ENE 15:48:25 84° E 15:54:42 10° SSE
Cosmos 1125 Rocket 4.4 15:50:51 43° SSE 15:50:51 43° SSE 15:54:25 10° SSE
NOSS 3-3 (C) 4.4 15:53:24 66° W 15:54:21 72° SW 16:01:40 10° SE
Cosmos 2227 Rocket 2.8 15:56:46 48° NNE 15:56:46 48° NNE 16:00:47 10° NNE
ADEOS Rocket 4.0 16:00:22 35° SSW 16:00:22 35° SSW 16:04:10 10° SSW
Cosmos 1459 Rocket 3.9 15:59:41 77° NNW 16:00:11 86° W 16:06:40 10° S
RESURS DK-1 4.3 16:07:17 23° SSE 16:08:12 25° SE 16:11:36 10° E
Cosmos 1607 4.1 16:08:16 59° SW 16:08:18 59° SW 16:14:40 10° SE
Cosmos 1461 4.5 16:11:26 27° ENE 16:11:26 27° ENE 16:13:13 10° ENE
Cosmos 1802 Rocket 4.0 16:09:40 37° N 16:12:31 90° SE 16:19:05 10° S
GEOS 3 Rocket 4.3 16:07:45 10° SE 16:12:20 43° SSW 16:12:20 43° SSW
Cosmos 1269 Rocket 4.1 16:15:07 42° SSW 16:16:57 79° ESE 16:22:17 10° NNE
Cosmos 192 4.3 16:19:29 81° NNE 16:19:41 84° ENE 16:24:42 10° SSE
CZ-2D R/B 4.4 16:23:15 10° NE 16:26:26 37° ESE 16:27:43 27° SSE
Cosmos 2298 Rocket 3.9 16:26:19 67° NW 16:27:02 82° WSW 16:32:27 10° SSE
Helios 1A Rocket 3.3 16:23:42 10° SSE 16:27:02 53° E 16:27:02 53° E
Cosmos 1818 3.5 16:27:54 47° SW 16:29:30 81° SE 16:34:56 10° NE
Cosmos 2100 Rocket 4.1 16:30:37 52° W 16:30:48 52° WSW 16:36:55 10° S
IRS-1C 4.4 16:26:25 10° NNE 16:31:45 69° ESE 16:37:08 10° SSW
Cosmos 1980 Rocket 3.2 16:27:34 10° N 16:32:56 45° ENE 16:38:22 10° SE
Cosmos 2061 Rocket 4.1 16:27:45 10° N 16:34:09 79° E 16:40:31 10° SSE
Cosmos 1271 Rocket 3.3 16:34:02 39° SSE 16:35:00 52° ESE 16:38:30 10° NNE
SL-4 R/B 3.5 16:34:29 26° N 16:35:22 29° NNE 16:39:01 10° E
SL-12 R/B(2) 4.3 16:29:17 19° SW 16:36:15 74° SE 16:43:57 10° ENE
Cosmos 1470 Rocket 3.4 16:39:52 75° WSW 16:39:52 75° WSW 16:44:13 10° S
Meteor 2-10 Rocket 3.7 16:40:22 21° NNW 16:44:26 75° WSW 16:50:16 10° S
ARIANE 5 R/B 2.5 16:39:33 10° NNE 16:44:38 82° ESE 16:49:44 10° SSW
DMSP B5D2-2 4.0 16:45:05 10° S 16:50:21 64° WSW 16:52:53 30° NW
Meteor 1-24 Rocket 3.5 16:45:10 10° SSW 16:50:39 81° W 16:56:00 10° N
Cosmos 1933 Rocket 3.7 16:47:27 10° N 16:51:55 75° E 16:56:26 10° SSE
Cosmos 2016 Rocket 4.0 16:47:36 19° NNW 16:52:11 60° WSW 16:58:34 10° S
IRAS Rocket 4.3 16:48:58 10° N 16:54:29 56° WNW 17:00:01 10° SSW
ATLAS 5 CENTAUR R/B 2.7 16:53:49 35° WNW 16:56:59 63° SW 17:03:35 10° SE
Cosmos 2219 3.1 16:55:05 23° SW 16:58:42 66° WNW 17:04:17 10° NNE
Cosmos 2150 Rocket 4.3 16:58:40 39° WNW 17:00:10 50° WSW 17:05:30 10° SSE
Meteor 1-15 Rocket 4.3 16:55:16 10° N 17:01:02 84° E 17:06:46 10° SSE
Cosmos 407 Rocket 3.7 16:57:33 10° SSW 17:02:55 76° ESE 17:08:16 10° NNE
Cosmos 1869 Rocket 4.0 16:58:36 10° N 17:03:03 65° E 17:07:32 10° SSE
Cosmos 2242 Rocket 4.2 17:00:21 10° S 17:04:47 58° ESE 17:09:10 10° NNE
CZ-2D R/B 4.0 17:01:30 10° NNE 17:05:16 53° ESE 17:09:07 10° S
Cosmos 1725 Rocket 4.2 17:02:45 19° NW 17:07:02 47° WSW 17:13:12 10° S
Cosmos 1633 Rocket 4.3 17:11:39 25° SW 17:11:39 25° SW 17:14:19 10° S
Cosmos 1844 Rocket 3.5 17:05:03 10° SSW 17:10:32 49° SE 17:15:58 10° NE
Cosmos 1140 Rocket 3.5 17:08:18 15° SSW 17:12:35 59° WNW 17:17:42 10° N
Cosmos 2084 4.1 17:12:36 35° WNW 17:13:00 36° NW 17:17:05 10° NNE
SJ 16-02 3.8 17:10:15 10° S 17:13:23 19° SE 17:16:29 10° E
Cosmos 1697 Rocket 2.8 17:11:18 26° WNW 17:14:29 57° SW 17:20:09 10° SSE
ATLAS 2AS CENTAUR R/B 3.6 17:08:43 15° SW 17:14:45 49° SSE 17:21:59 10° ENE
Intercosmos 24 3.7 17:12:36 10° S 17:16:17 81° ESE 17:20:07 10° NNE
Meteor 2-5 Rocket 3.8 17:11:05 10° SSW 17:16:44 56° W 17:22:14 10° N
Cosmos 1703 Rocket 4.1 17:17:07 32° WSW 17:18:01 35° W 17:22:02 10° NNW
Cosmos 2251 Rocket 3.8 17:13:02 10° SSW 17:18:24 71° ESE 17:23:41 10° NNE
AQUARIUS 4.4 17:15:08 10° NNE 17:19:36 71° ESE 17:24:06 10° S
SMAP 3.0 17:14:55 10° NNE 17:19:38 80° WNW 17:24:25 10° SSW
ACS3 Solar Sail 1.8 17:13:57 10° N 17:20:14 72° WNW 17:26:41 10° SSW
Cosmos 1953 2.6 17:17:16 10° N 17:20:59 62° E 17:24:47 10° SSE
IGS 5A 3.3 17:17:04 10° NNE 17:21:09 89° ESE 17:25:17 10° SSW
Cosmos 2263 Rocket 2.6 17:21:18 19° SW 17:24:48 41° WNW 17:29:59 10° N
BREEZE-M DEB (TANK) 2.9 17:23:14 20° WNW 17:26:09 47° N 17:28:39 10° E
USA 276 4.3 17:27:01 11° NNW 17:27:01 11° NNW 17:27:25 10° N
SL-16 R/B 2.8 17:20:56 10° S 17:27:01 50° WSW 17:33:02 10° NW
Cosmos 1328 3.5 17:23:56 10° SSW 17:27:41 68° W 17:31:24 10° N
CZ-4C R/B 3.3 17:20:50 10° NNW 17:29:24 72° NE 17:36:20 10° SE
SJ-6F 4.3 17:26:00 10° N 17:30:06 66° WNW 17:34:13 10° SSW
CORIOLIS 4.1 17:25:31 10° N 17:30:56 66° WNW 17:36:24 10° SSW
Cosmos 2369 Rocket 4.3 17:29:15 10° SSW 17:31:35 12° S 17:33:54 10° SSE
Cosmos 1758 4.1 17:32:04 28° WSW 17:32:10 28° WSW 17:35:34 10° S
USA 290 2.3 17:33:10 12° SSW 17:36:16 84° ESE 17:39:38 10° NNE
Cosmos 2227 Rocket 3.5 17:38:40 18° WNW 17:38:40 18° WNW 17:42:03 10° NW
Cosmos 2082 4.1 17:38:18 10° SW 17:43:37 43° WNW 17:48:54 10° N
Meteor 1-22 Rocket 4.4 17:39:36 10° NW 17:44:39 42° WSW 17:49:50 10° S
SJ-12 4.5 17:41:13 10° NNW 17:44:46 32° W 17:48:23 10° SSW
RESURS DK-1 2.4 17:42:41 14° SW 17:46:00 56° WNW 17:49:56 10° NNE
Cosmos 1461 3.9 17:46:06 20° WNW 17:46:34 20° WNW 17:49:17 10° NNW
SL-19 R/B 3.8 17:43:57 10° N 17:46:48 50° WNW 17:49:56 10° SSW
Cosmos 1733 Rocket 3.4 17:42:22 10° N 17:46:50 70° E 17:51:19 10° SSE
Resurs 01 Rocket 4.2 17:50:23 10° ENE 17:53:38 20° ESE 17:56:53 10° SSE
Meteor 2-12 Rocket 4.4 17:48:07 10° SSW 17:54:19 72° W 18:00:25 10° N
Landsat 7 3.8 17:50:45 10° NNE 17:55:28 87° WNW 18:00:16 10° SSW
CZ-2D R/B 4.3 17:56:35 10° NW 17:59:10 20° W 18:01:08 13° SW
Helios 1A Rocket 4.2 17:57:42 10° SSW 18:00:12 18° WSW 18:01:15 16° W
SL-16 R/B 3.3 17:55:13 10° N 18:00:41 50° ENE 18:06:13 10° SE
SJ-7 4.3 17:57:23 10° N 18:01:17 62° WNW 18:05:14 10° SSW
Cosmos 2034 Rocket 4.2 17:56:40 10° N 18:02:53 80° E 18:09:14 10° SSE
Cosmos 2278 Rocket 4.2 17:59:04 10° SSW 18:03:18 20° SSE 18:07:30 10° ESE
BREEZE-M DEB (TANK) 4.1 17:46:50 10° WNW 18:03:19 63° N 18:07:04 10° E
USA 305 3.3 18:04:39 10° NW 18:08:33 55° NNE 18:12:25 10° ESE
Cosmos 1271 Rocket 4.2 18:08:04 13° WSW 18:09:20 15° W 18:11:26 10° WNW
SL-4 R/B 2.3 18:08:54 10° WNW 18:13:06 66° NNE 18:17:12 10° E
Cosmos 2369 3.8 18:08:09 10° NW 18:13:46 62° SW 18:19:29 10° SSE
Cosmos 1844 3.8 18:08:12 10° SSW 18:14:03 78° WNW 18:19:53 10° NNE
Cosmos 1190 Rocket 4.1 18:10:12 10° SSW 18:15:23 59° WNW 18:20:30 10° N
USA 81 4.2 18:10:51 10° SSW 18:16:06 57° W 18:21:17 10° NNW
Cosmos 2278 4.2 18:10:53 10° NNW 18:16:31 66° ENE 18:22:14 10° SE
Cosmos 1980 Rocket 2.6 18:11:33 10° WNW 18:16:59 44° SW 18:22:29 10° SSE
PSLV R/B 3.9 18:13:13 10° N 18:17:18 44° W 18:21:26 10° SSW
SL-24 R/B 4.2 18:14:18 10° N 18:17:52 42° W 18:21:45 10° SSW
Cosmos 2333 Rocket 3.7 18:13:46 10° N 18:19:03 42° ENE 18:24:24 10° SE
Nadezhda 4 Rocket 4.3 18:15:38 10° SSW 18:21:45 49° W 18:27:47 10° NNW
Cosmos 1943 Rocket 4.1 18:18:23 10° SSW 18:22:49 22° SSE 18:27:14 10° E
Cosmos 2322 Rocket 3.5 18:18:14 10° N 18:23:35 46° ENE 18:28:59 10° SE
ARIANE 5 R/B 3.9 18:20:56 10° NW 18:24:19 18° W 18:27:43 10° SW
Cosmos 1420 Rocket 4.1 18:22:19 10° NNW 18:27:37 89° WSW 18:32:56 10° SSE
Cosmos 1464 Rocket 4.2 18:22:58 10° NNW 18:29:11 52° WSW 18:35:24 10° S
SPOT 1/Viking Rocket 3.7 18:26:40 10° NNE 18:31:51 89° ESE 18:37:08 10° SSW
Cosmos 371 Rocket 4.4 18:28:33 10° SSW 18:33:15 45° SE 18:37:54 10° NE
Aureole 3 Rocket 3.3 18:31:06 10° NW 18:33:48 26° WSW 18:36:37 10° S
Cosmos 1954 Rocket 4.2 18:29:46 10° SSW 18:34:53 52° WNW 18:39:59 10° N
Cosmos 1378 Rocket 4.1 18:32:13 10° SSW 18:36:16 37° W 18:40:15 10° NNW
